This demonstration page uses our WeatherBlox Daily Observations layout. Learn more.

Left ArrowRight Arrow

Hourly Observations for May 27, 2017

Temp ( °F °C ) Dew Point ( °F °C ) Humidity (%) Winds ( mph kmh ) Pressure ( in mb ) Visibility ( mi km ) Precip ( " mm )
12:53 am 00:53 Clear 66 18.9 64 17.8 93 93 Calm 30.00 1016 10 16 0.00 0.00
1:53 am 01:53 Clear 65 18.3 64 17.8 97 97 Calm 30.01 1016 10 16 0.00 0.00
2:53 am 02:53 Clear 65 18.3 64 17.8 97 97 Calm 29.99 1016 10 16 0.00 0.00
3:53 am 03:53 Clear 64 17.8 63 17.2 96 96 Calm 29.99 1016 10 16 0.00 0.00
4:53 am 04:53 Clear 65 18.3 64 17.8 97 97 SSW 3 6 29.99 1016 10 16 0.00 0.00
5:53 am 05:53 Clear 65 18.3 63 17.2 93 93 SW 3 6 29.99 1016 10 16 0.00 0.00
6:53 am 06:53 Sunny 64 17.8 63 17.2 96 96 SSW 3 6 30.00 1016 10 16 0.00 0.00
7:53 am 07:53 Sunny 66 18.9 63 17.2 90 90 WSW 5 7 30.01 1016 10 16 0.00 0.00
8:53 am 08:53 Sunny 70 21.1 64 17.8 82 82 SSW 8 13 30.03 1017 10 16 0.00 0.00
9:53 am 09:53 Sunny 73 22.8 64 17.8 74 74 SSW 6 9 30.03 1017 10 16 0.00 0.00
10:53 am 10:53 Sunny 77 25 65 18.3 66 66 WSW 7 11 30.03 1017 10 16 0.00 0.00
11:53 am 11:53 Sunny 80 26.7 67 19.4 64 64 VRB 6 9 30.03 1017 10 16 0.00 0.00
12:53 pm 12:53 Mostly Cloudy 81 27.2 65 18.3 58 58 SSW 7 11 30.03 1017 10 16 0.00 0.00
1:53 pm 13:53 Mostly Sunny 82 27.8 66 18.9 58 58 SSW 9 15 30.02 1017 10 16 0.00 0.00
2:53 pm 14:53 Mostly Cloudy 82 27.8 66 18.9 58 58 VRB 7 11 29.99 1016 10 16 0.00 0.00
3:53 pm 15:53 Partly Cloudy 84 28.9 68 20 59 59 WSW 9 15 29.97 1015 10 16 0.00 0.00
4:53 pm 16:53 Sunny 84 28.9 68 20 59 59 SW 10 17 29.95 1014 10 16 0.00 0.00
5:53 pm 17:53 Mostly Cloudy 82 27.8 68 20 63 63 WSW 10 17 29.95 1014 10 16 0.00 0.00
6:53 pm 18:53 Mostly Cloudy 81 27.2 69 20.6 67 67 SSW 10 17 29.94 1014 10 16 0.00 0.00
7:53 pm 19:53 Mostly Cloudy 80 26.7 70 21.1 71 71 SW 7 11 29.94 1014 10 16 0.00 0.00
8:53 pm 20:53 Partly Cloudy 78 25.6 70 21.1 76 76 S 6 9 29.93 1014 10 16 0.00 0.00
9:53 pm 21:53 Clear 77 25 71 21.7 82 82 SW 3 6 29.93 1014 10 16 0.00 0.00
10:53 pm 22:53 Clear 76 24.4 71 21.7 85 85 Calm 29.94 1014 10 16 0.00 0.00
11:53 pm 23:53 Mostly Cloudy 74 23.3 71 21.7 91 91 Calm 29.96 1014 10 16 0.00 0.00

Powered by AerisWeather